Weather History for Kalispell, MT

Change the Weather History Date:

Friday, November 9, 2012

  Actual Average Record
Temperature  
Mean Temperature 26 °F 34 °F  
Max Temperature 31 °F 43 °F 60 °F (1937)
Min Temperature 21 °F 26 °F -3 °F (1986)
Degree Days  
Heating Degree Days 39 31  
Month to date heating degree days 220 267  
Since 1 July heating degree days 1303 1475  
Cooling Degree Days 0 0  
Month to date cooling degree days 0 0  
Year to date cooling degree days 192 147  
Moisture  
Dew Point 10 °F    
Average Humidity 58    
Maximum Humidity 69    
Minimum Humidity 47    
Precipitation  
Precipitation 0.00 in 0.05 in 0.86 in (1902)
Month to date precipitation 0.21 0.41  
Year to date precipitation 17.82 14.41  
Snow  
Snow 0.00 in - - ()
Month to date snowfall 0.0  
Year to date snowfall 27.1  
Since 1 July snowfall 2.0  
Snow Depth 0.00 in    
Sea Level Pressure  
Sea Level Pressure 29.93 in    
Wind  
Wind Speed 20 mph (NNE)    
Max Wind Speed 30 mph    
Max Gust Speed 37 mph    
Visibility 10 miles    
Events      
T = Trace of Precipitation, MM = Missing Value Source: NWS Daily Summary

Daily Weather History Graph

Daily Weather History Graph

Search for Another Location

Airport:

Trip Planner

Search our weather history database for the weather conditions in past years. The results will help you decide how hot, cold, wet, or windy it might be!

Date:

Astronomy

Nov. 09, 2012 Rise Set
Actual Time 7:36 AM MST 5:05 PM MST
Civil Twilight 7:02 AM MST 5:38 PM MST
Nautical Twilight 6:24 AM MST 6:16 PM MST
Astronomical Twilight 5:48 AM MST 6:52 PM MST
Moon 2:18 AM MST (11/9) 2:39 PM MST (11/9)
Length of Visible Light 10h 36m
Length of Day
9h 29m
Waning Crescent, 22% of the Moon is Illuminated
Nov 9
Waning Crescent
Nov 13
New
Nov 20
First Quarter
Nov 28
Full
Dec 6
Last Quarter

Hourly Weather History & Observations

Time (MST) Temp. Windchill Dew Point Humidity Pressure Visibility Wind Dir Wind Speed Gust Speed Precip Events Conditions
12:55 AM 30.9 °F 19.4 °F 18.0 °F 59% 29.83 in 10.0 mi NNE 17.3 mph 28.8 mph N/A   Overcast
1:55 AM 27.0 °F 12.8 °F 17.1 °F 66% 29.85 in 10.0 mi NNE 21.9 mph 32.2 mph N/A   Overcast
2:55 AM 27.0 °F 12.8 °F 15.1 °F 61% 29.86 in 10.0 mi NNE 21.9 mph 33.4 mph N/A   Overcast
3:55 AM 26.1 °F 12.0 °F 12.9 °F 58% 29.86 in 10.0 mi NNE 20.7 mph 33.4 mph N/A   Overcast
4:55 AM 25.0 °F 9.9 °F 12.0 °F 58% 29.88 in 10.0 mi NNE 23.0 mph 32.2 mph N/A   Overcast
5:55 AM 24.1 °F 8.7 °F 10.9 °F 57% 29.89 in 10.0 mi NNE 23.0 mph 36.8 mph N/A   Overcast
6:55 AM 24.1 °F 7.7 °F 10.0 °F 55% 29.90 in 10.0 mi NNE 26.5 mph 36.8 mph N/A   Overcast
7:55 AM 24.1 °F 9.4 °F 9.0 °F 53% 29.91 in 10.0 mi NNE 20.7 mph 32.2 mph N/A   Overcast
8:55 AM 24.1 °F 9.0 °F 8.1 °F 51% 29.91 in 10.0 mi NNE 21.9 mph 31.1 mph N/A   Overcast
9:55 AM 25.0 °F 9.9 °F 8.1 °F 49% 29.93 in 10.0 mi NNE 23.0 mph 27.6 mph N/A   Overcast
10:55 AM 25.0 °F 11.3 °F 10.0 °F 53% 29.93 in 10.0 mi NNE 18.4 mph 28.8 mph N/A   Overcast
11:55 AM 27.0 °F 12.8 °F 10.0 °F 49% 29.92 in 10.0 mi NNE 21.9 mph 26.5 mph N/A   Overcast
12:55 PM 27.0 °F 12.8 °F 10.9 °F 51% 29.93 in 10.0 mi NNE 21.9 mph 29.9 mph N/A   Overcast
1:55 PM 27.0 °F 13.9 °F 10.9 °F 51% 29.94 in 10.0 mi NNE 18.4 mph 28.8 mph N/A   Overcast
2:55 PM 27.0 °F 14.3 °F 10.9 °F 51% 29.94 in 10.0 mi NE 17.3 mph 25.3 mph N/A   Overcast
3:55 PM 26.1 °F 12.3 °F 10.0 °F 51% 29.95 in 10.0 mi NE 19.6 mph - N/A   Overcast
4:55 PM 24.1 °F 9.4 °F 10.0 °F 55% 29.95 in 10.0 mi NNE 20.7 mph 24.2 mph N/A   Overcast
5:55 PM 23.0 °F 8.7 °F 8.1 °F 53% 29.97 in 10.0 mi NNE 18.4 mph 25.3 mph N/A   Overcast
6:55 PM 21.9 °F 8.7 °F 7.0 °F 53% 29.98 in 10.0 mi NNE 15.0 mph 25.3 mph N/A   Overcast
7:55 PM 21.0 °F 6.2 °F 6.1 °F 53% 29.99 in 10.0 mi NNE 18.4 mph - N/A   Scattered Clouds
8:55 PM 21.0 °F 6.6 °F 6.1 °F 53% 30.01 in 10.0 mi NNE 17.3 mph - N/A   Overcast
9:55 PM 21.0 °F 6.2 °F 5.0 °F 50% 30.01 in 10.0 mi NNE 18.4 mph 25.3 mph N/A   Overcast
10:55 PM 21.0 °F 6.6 °F 5.0 °F 50% 30.01 in 10.0 mi NNE 17.3 mph 25.3 mph N/A   Overcast
11:55 PM 21.0 °F 7.6 °F 5.0 °F 50% 30.01 in 10.0 mi NNE 15.0 mph 23.0 mph N/A   Overcast